period_start,C,m1,H,J0,J1,J2,J3,J4,J5,JA,JB,JC,JD,JJ,JK,JN,#
2016-12-26 00:04:02,0.42,10.90,0.00,18.11,22.62,26.55,15.01,48.94,1032.47,2040.99,1168.66,1426.73,1605.85,599.85,615.35,48.14,0000 0000 0000 0000 000000
2016-12-26 00:09:03,0.37,10.92,0.00,18.12,22.62,26.51,15.09,49.01,1032.30,2040.99,1166.76,1425.22,1604.06,599.97,615.29,48.19,0000 0000 0000 0000 000000
2016-12-26 00:14:04,0.40,10.94,0.00,18.12,22.62,26.55,14.97,48.97,1032.31,2040.98,1164.90,1423.63,1602.23,599.47,614.80,48.24,0000 0000 0000 0000 000000
2016-12-26 00:19:05,0.40,10.96,0.00,18.08,22.62,26.56,15.13,48.88,1032.48,2040.99,1162.97,1421.99,1600.44,600.12,615.62,48.29,0000 0000 0000 0000 000000
2016-12-26 00:24:07,0.39,10.98,0.00,18.11,22.62,26.53,15.11,49.02,1032.49,2040.99,1161.04,1420.45,1598.69,600.13,615.66,48.34,0000 0000 0000 0000 000000
2016-12-26 00:29:08,0.41,11.00,0.00,18.10,22.62,26.62,15.15,48.90,1032.44,2040.99,1159.12,1418.82,1596.93,600.19,615.70,48.39,0000 0000 0000 0000 000000
2016-12-26 00:34:09,0.40,11.02,0.00,18.07,22.62,26.57,15.12,49.04,1032.39,2040.99,1157.20,1417.23,1595.07,600.24,615.75,48.44,0000 0000 0000 0000 000000
2016-12-26 00:39:11,0.41,11.04,0.00,18.07,22.62,26.56,15.05,48.98,1032.58,2040.99,1155.22,1415.61,1593.24,599.92,615.61,48.49,0000 0000 0000 0000 000000
2016-12-26 00:44:12,0.38,11.06,0.00,18.12,22.62,26.54,15.00,48.92,1032.69,2040.99,1153.36,1414.02,1591.45,599.71,615.24,48.54,0000 0000 0000 0000 000000
2016-12-26 00:49:13,0.41,11.08,0.00,18.13,22.62,26.54,15.00,49.02,1032.63,2040.99,1151.47,1412.45,1589.60,599.91,615.47,48.59,0000 0000 0000 0000 000000
2016-12-26 00:54:14,0.42,11.10,0.00,18.11,22.62,26.54,15.03,48.95,1032.69,2040.98,1149.62,1410.82,1587.75,599.85,615.52,48.64,0000 0000 0000 0000 000000
2016-12-26 00:59:15,0.38,11.12,0.00,18.14,22.62,26.55,15.10,49.03,1032.63,2040.96,1147.81,1409.23,1585.89,599.88,615.36,48.69,0000 0000 0000 0000 000000
2016-12-26 01:04:16,0.40,11.14,0.00,18.15,22.64,26.60,15.08,49.17,1032.60,2040.97,1145.88,1407.71,1584.14,600.07,615.60,48.74,0000 0000 0000 0000 000000
2016-12-26 01:09:18,0.36,11.16,0.00,18.13,22.64,26.62,15.04,49.10,1032.46,2040.98,1144.12,1406.30,1582.45,599.95,615.36,48.79,0000 0000 0000 0000 000000
2016-12-26 01:14:19,0.40,11.18,0.00,18.16,22.64,26.62,15.13,49.13,1032.32,2040.96,1142.25,1404.75,1580.69,600.09,615.38,48.85,0000 0000 0000 0000 000000
2016-12-26 01:19:20,0.37,11.20,0.00,18.22,22.64,26.64,15.09,49.02,1032.26,2040.92,1140.47,1403.27,1578.92,600.04,615.03,48.90,0000 0000 0000 0000 000000
2016-12-26 01:24:21,0.41,11.22,0.00,18.18,22.65,26.64,15.11,49.12,1032.25,2040.95,1138.69,1401.74,1577.23,599.91,615.05,48.95,0000 0000 0000 0000 000000
2016-12-26 01:29:23,0.37,11.24,0.00,18.17,22.65,26.59,15.02,49.13,1032.21,2040.91,1136.85,1400.24,1575.47,599.60,614.70,49.00,0000 0000 0000 0000 000000
2016-12-26 01:34:24,0.38,11.26,0.00,18.17,22.66,26.61,15.04,49.10,1032.19,2040.82,1135.16,1398.71,1573.67,600.07,615.20,49.05,0000 0000 0000 0000 000000
2016-12-26 01:39:25,0.37,11.28,0.00,18.19,22.67,26.63,15.05,49.13,1032.23,2040.85,1133.33,1397.26,1571.95,599.85,614.87,49.10,0000 0000 0000 0000 000000
2016-12-26 01:44:26,0.40,11.30,0.00,18.19,22.67,26.61,15.03,49.03,1032.24,2040.71,1131.47,1395.70,1570.27,600.10,615.30,49.15,0000 0000 0000 0000 000000
2016-12-26 01:49:27,0.37,11.32,0.00,18.19,22.67,26.63,15.04,49.16,1032.24,2040.65,1129.65,1394.23,1568.63,599.72,614.90,49.20,0000 0000 0000 0000 000000
2016-12-26 01:54:29,0.41,11.34,0.00,18.20,22.67,26.63,15.19,49.13,1032.25,2040.64,1127.90,1392.76,1566.86,600.19,615.36,49.25,0000 0000 0000 0000 000000
2016-12-26 01:59:30,0.32,11.36,0.00,18.20,22.67,26.64,15.10,49.02,1032.25,2040.36,1126.11,1391.30,1565.12,600.15,615.32,49.30,0000 0000 0000 0000 000000
2016-12-26 02:04:31,0.42,11.38,0.00,18.21,22.67,26.65,15.03,49.15,1032.24,2040.38,1124.36,1389.76,1563.44,599.44,614.53,49.35,0000 0000 0000 0000 000000
2016-12-26 02:09:32,0.38,11.39,0.00,18.19,22.67,26.60,15.06,49.11,1032.24,2040.40,1122.60,1388.35,1561.70,599.84,615.01,49.40,0000 0000 0000 0000 000000
2016-12-26 02:14:33,0.38,11.42,0.00,18.20,22.67,26.63,15.04,49.13,1032.24,2040.29,1120.80,1386.79,1559.97,599.92,615.13,49.45,0000 0000 0000 0000 000000
2016-12-26 02:19:35,0.35,11.43,0.00,18.19,22.67,26.63,15.08,49.02,1032.24,2040.11,1118.97,1385.36,1558.33,600.06,615.23,49.50,0000 0000 0000 0000 000000
2016-12-26 02:24:36,0.43,11.45,0.00,18.21,22.69,26.62,15.15,49.17,1032.24,2040.26,1117.25,1383.87,1556.66,600.59,615.68,49.55,0000 0000 0000 0000 000000
2016-12-26 02:29:37,0.35,11.47,0.00,18.22,22.69,26.63,15.15,49.11,1032.24,2040.14,1115.51,1382.45,1554.93,600.48,615.62,49.60,0000 0000 0000 0000 000000
2016-12-26 02:34:39,0.38,11.49,0.00,18.19,22.69,26.67,15.11,49.17,1032.24,2040.06,1113.68,1380.88,1553.19,600.13,615.34,49.65,0000 0000 0000 0000 000000
2016-12-26 02:39:40,0.40,11.51,0.00,18.16,22.69,26.64,15.07,49.17,1032.24,2040.03,1111.88,1379.45,1551.52,599.83,615.16,49.70,0000 0000 0000 0000 000000
2016-12-26 02:44:41,0.36,11.53,0.00,18.17,22.70,26.66,15.09,49.13,1032.21,2040.03,1110.17,1377.98,1549.88,599.66,614.93,49.75,0000 0000 0000 0000 000000
2016-12-26 02:49:42,0.39,11.55,0.00,18.18,22.71,26.67,15.03,49.28,1032.12,2040.02,1108.47,1376.57,1548.29,600.01,615.16,49.80,0000 0000 0000 0000 000000
2016-12-26 02:54:44,0.39,11.57,0.00,18.21,22.72,26.69,15.11,49.10,1031.91,2040.02,1106.77,1375.13,1546.63,600.15,615.11,49.86,0000 0000 0000 0000 000000
2016-12-26 02:59:45,0.38,11.59,0.00,18.22,22.72,26.75,15.01,49.15,1031.79,2040.02,1105.06,1373.65,1545.01,599.66,614.58,49.91,0000 0000 0000 0000 000000
2016-12-26 03:04:46,0.36,11.61,0.00,18.23,22.74,26.69,15.01,49.12,1031.78,2040.03,1103.44,1372.33,1543.43,599.77,614.57,49.96,0000 0000 0000 0000 000000
2016-12-26 03:09:48,0.39,11.63,0.00,18.26,22.74,26.71,15.06,49.13,1031.80,2040.00,1101.77,1370.86,1541.78,600.03,614.87,50.01,0000 0000 0000 0000 000000
2016-12-26 03:14:49,0.35,11.65,0.00,18.21,22.75,26.71,15.06,49.22,1031.82,2040.00,1100.20,1369.52,1540.17,599.57,614.40,50.06,0000 0000 0000 0000 000000
2016-12-26 03:19:50,0.37,11.67,0.00,18.23,22.77,26.72,15.06,49.23,1032.01,2040.00,1098.63,1368.09,1538.58,599.84,614.72,50.11,0000 0000 0000 0000 000000
2016-12-26 03:24:52,0.39,11.69,0.00,18.25,22.77,26.70,15.04,49.24,1031.99,2040.00,1096.89,1366.69,1536.98,599.91,614.73,50.16,0000 0000 0000 0000 000000
2016-12-26 03:29:53,0.35,11.70,0.00,18.27,22.77,26.77,15.12,49.27,1031.97,2040.00,1095.25,1365.37,1535.52,600.28,615.14,50.21,0000 0000 0000 0000 000000
2016-12-26 03:34:54,0.35,11.72,0.00,18.29,22.79,26.79,15.07,49.46,1031.87,2040.00,1093.59,1364.00,1534.15,599.90,614.58,50.26,0000 0000 0000 0000 000000
2016-12-26 03:39:55,0.38,11.74,0.00,18.27,22.79,26.76,15.00,49.31,1032.00,2040.00,1091.95,1362.66,1532.59,599.59,614.40,50.31,0000 0000 0000 0000 000000
2016-12-26 03:44:57,0.35,11.76,0.00,18.24,22.79,26.77,15.14,49.48,1032.15,2040.00,1090.38,1361.30,1531.01,600.09,615.12,50.36,0000 0000 0000 0000 000000
2016-12-26 03:49:58,0.37,11.78,0.00,18.24,22.80,26.76,15.14,49.35,1032.09,2040.00,1088.76,1359.93,1529.45,600.55,615.50,50.41,0000 0000 0000 0000 000000
2016-12-26 03:54:59,0.37,11.80,0.00,18.25,22.80,26.77,15.06,49.29,1031.96,2039.99,1087.19,1358.56,1527.87,600.12,615.02,50.46,0000 0000 0000 0000 000000
2016-12-26 04:00:00,0.35,11.82,0.00,18.27,22.82,26.85,15.10,49.33,1032.19,2039.98,1085.69,1357.21,1526.31,600.15,615.22,50.51,0000 0000 0000 0000 000000
2016-12-26 04:05:01,0.38,11.84,0.00,18.27,22.82,26.79,15.08,49.38,1032.11,2039.98,1084.12,1355.85,1524.72,599.77,614.51,50.56,0000 0000 0000 0000 000000
2016-12-26 04:10:03,0.37,11.86,0.00,18.27,22.82,26.79,15.09,49.47,1032.07,2039.97,1082.49,1354.53,1523.19,600.03,614.94,50.61,0000 0000 0000 0000 000000
2016-12-26 04:15:04,0.37,11.87,0.00,18.28,22.82,26.81,15.04,49.31,1032.02,2039.97,1080.84,1353.16,1521.62,599.48,614.39,50.66,0000 0000 0000 0000 000000
2016-12-26 04:20:05,0.44,11.90,0.00,18.26,22.82,26.80,15.07,49.38,1031.99,2039.98,1079.05,1351.70,1519.97,599.99,614.89,50.71,0000 0000 0000 0000 000000
2016-12-26 04:25:06,0.47,11.92,0.00,18.28,22.82,26.73,15.02,49.56,1031.94,2039.97,1076.98,1350.01,1518.03,599.88,614.71,50.77,0000 0000 0000 0000 000000
2016-12-26 04:30:07,0.42,11.94,0.00,18.28,22.82,26.77,15.18,49.49,1031.91,2039.96,1075.04,1348.46,1516.31,600.18,614.98,50.82,0000 0000 0000 0000 000000
2016-12-26 04:35:08,0.37,11.96,0.00,18.29,22.82,26.84,15.11,49.52,1031.79,2039.97,1073.38,1347.06,1514.74,600.23,614.82,50.87,0000 0000 0000 0000 000000
2016-12-26 04:40:10,0.40,11.98,0.00,18.27,22.82,26.80,15.05,49.43,1031.89,2039.96,1071.74,1345.67,1513.12,600.12,614.87,50.92,0000 0000 0000 0000 000000
2016-12-26 04:45:11,0.38,12.00,0.00,18.30,22.84,26.79,15.18,49.33,1031.82,2039.95,1070.00,1344.24,1511.46,600.19,614.77,50.97,0000 0000 0000 0000 000000
2016-12-26 04:50:12,0.41,12.02,0.00,18.30,22.84,26.80,15.06,49.32,1031.97,2039.89,1068.15,1342.85,1509.74,599.70,614.49,51.02,0000 0000 0000 0000 000000
2016-12-26 04:55:14,0.44,12.05,0.00,18.31,22.84,26.80,15.11,49.43,1032.11,2039.94,1066.18,1341.40,1508.05,600.18,615.08,51.07,0000 0000 0000 0000 000000
2016-12-26 05:00:15,0.42,12.07,0.00,18.35,22.86,26.77,15.14,49.55,1032.21,2039.96,1064.33,1339.86,1506.32,600.47,615.33,51.12,0000 0000 0000 0000 000000
2016-12-26 05:05:16,0.44,12.09,0.00,18.13,22.87,26.75,15.16,49.70,1032.21,2039.94,1062.45,1338.37,1504.60,600.57,615.84,51.17,0000 0000 0000 0000 000000
2016-12-26 05:10:17,0.44,12.11,0.00,17.91,22.86,26.87,15.04,49.91,1032.17,2039.97,1060.56,1336.85,1502.90,599.90,615.56,51.22,0000 0000 0000 0000 000000
2016-12-26 05:15:18,0.41,12.13,0.00,17.84,22.84,26.70,15.04,49.79,1031.85,2039.97,1058.74,1335.51,1501.31,599.94,615.63,51.27,0000 0000 0000 0000 000000
2016-12-26 05:20:20,0.38,12.15,0.00,17.83,22.82,26.56,15.24,49.73,1031.78,2039.98,1057.06,1334.14,1499.71,600.38,615.99,51.32,0000 0000 0000 0000 000000
2016-12-26 05:25:21,0.42,12.17,0.00,17.79,22.80,26.48,15.10,49.72,1031.79,2039.99,1055.41,1332.69,1498.04,600.18,615.94,51.37,0000 0000 0000 0000 000000
2016-12-26 05:30:22,0.43,12.19,0.00,17.74,22.78,26.48,15.06,49.56,1031.77,2039.99,1053.59,1331.18,1496.24,599.90,615.71,51.42,0000 0000 0000 0000 000000
2016-12-26 05:35:23,0.48,12.22,0.00,17.68,22.76,26.41,15.14,49.56,1031.77,2039.99,1051.62,1329.55,1494.40,599.87,615.87,51.47,0000 0000 0000 0000 000000
2016-12-26 05:40:24,0.47,12.24,0.00,17.60,22.73,26.34,15.04,49.71,1031.78,2039.99,1049.53,1327.93,1492.61,599.58,615.74,51.52,0000 0000 0000 0000 000000
2016-12-26 05:45:25,0.45,12.26,0.00,17.55,22.69,26.29,15.15,49.74,1031.78,2039.99,1047.52,1326.47,1490.97,600.44,616.65,51.57,0000 0000 0000 0000 000000
2016-12-26 05:50:27,0.38,12.29,0.00,17.54,22.66,26.18,15.16,49.85,1031.76,2040.00,1045.79,1325.12,1489.52,600.18,616.46,51.62,0000 0000 0000 0000 000000
2016-12-26 05:55:28,0.42,12.31,0.00,17.54,22.62,26.15,15.11,49.77,1031.77,2040.02,1044.09,1323.69,1487.85,600.28,616.47,51.67,0000 0000 0000 0000 000000
2016-12-26 06:00:30,0.44,12.33,0.00,17.50,22.58,26.11,15.15,49.75,1031.76,2040.21,1042.31,1322.28,1486.23,600.28,616.72,51.72,0000 0000 0000 0000 000000
2016-12-26 06:05:31,0.46,12.35,0.00,17.45,22.54,26.14,15.14,49.89,1031.76,2040.58,1040.54,1320.94,1484.76,600.22,616.66,51.78,0000 0000 0000 0000 000000
2016-12-26 06:10:32,0.37,12.37,0.00,17.41,22.50,26.08,15.19,49.92,1031.73,2040.92,1039.05,1319.82,1483.49,600.22,616.81,51.83,0000 0000 0000 0000 000000
2016-12-26 06:15:34,0.37,12.39,0.00,17.43,22.47,26.02,15.16,49.84,1031.69,2040.99,1037.63,1318.70,1482.23,600.24,616.74,51.88,0000 0000 0000 0000 000000
2016-12-26 06:20:35,0.31,12.41,0.00,17.45,22.43,26.01,15.21,49.81,1031.73,2040.99,1036.24,1317.59,1480.91,600.46,616.93,51.93,0000 0000 0000 0000 000000
2016-12-26 06:25:36,0.36,12.42,0.00,17.46,22.40,26.01,15.12,49.84,1031.74,2040.99,1034.84,1316.43,1479.55,599.94,616.37,51.98,0000 0000 0000 0000 000000
2016-12-26 06:30:37,0.33,12.44,0.00,17.47,22.38,25.97,15.09,49.88,1031.68,2041.01,1033.38,1315.30,1478.32,599.85,616.17,52.03,0000 0000 0000 0000 000000
2016-12-26 06:35:38,0.34,12.46,0.00,17.50,22.35,25.99,15.07,49.94,1031.69,2041.07,1031.87,1314.15,1476.90,599.82,616.15,52.08,0000 0000 0000 0000 000000
2016-12-26 06:40:40,0.39,12.48,0.00,17.49,22.33,26.00,15.11,50.00,1031.72,2041.23,1030.48,1312.94,1475.62,599.69,616.03,52.13,0000 0000 0000 0000 000000
2016-12-26 06:45:41,0.40,12.50,0.00,17.50,22.31,26.01,15.11,49.92,1031.47,2041.50,1028.96,1311.73,1474.25,600.00,616.21,52.18,0000 0000 0000 0000 000000
2016-12-26 06:50:42,0.44,12.52,0.00,17.51,22.29,25.95,15.16,49.96,1031.30,2041.82,1027.51,1310.50,1472.80,600.32,616.42,52.23,0000 0000 0000 0000 000000
2016-12-26 06:55:43,0.36,12.54,0.00,17.54,22.27,25.94,15.03,49.83,1031.31,2041.97,1025.97,1309.28,1471.48,599.70,615.64,52.28,0000 0000 0000 0000 000000
2016-12-26 07:00:44,0.35,12.56,0.00,17.55,22.27,26.00,15.13,49.93,1031.28,2041.96,1024.47,1307.97,1470.15,600.41,616.33,52.33,0000 0000 0000 0000 000000
2016-12-26 07:05:45,0.37,12.58,0.00,17.53,22.25,25.97,15.12,49.98,1031.28,2041.97,1022.97,1306.76,1468.72,599.82,615.81,52.38,0000 0000 0000 0000 000000
2016-12-26 07:10:47,0.37,12.60,0.00,17.57,22.24,25.99,15.13,49.90,1031.27,2041.98,1021.62,1305.49,1467.33,600.03,616.11,52.43,0000 0000 0000 0000 000000
2016-12-26 07:15:48,0.34,12.61,0.00,17.59,22.24,25.98,15.12,49.88,1031.28,2041.99,1020.19,1304.30,1465.77,599.98,615.90,52.48,0000 0000 0000 0000 000000
2016-12-26 07:20:49,0.39,12.63,0.00,17.56,22.23,26.05,15.17,49.84,1031.28,2041.98,1018.70,1302.94,1464.31,600.12,616.11,52.53,0000 0000 0000 0000 000000
2016-12-26 07:25:50,0.40,12.66,0.00,17.57,22.22,26.05,15.12,49.78,1031.27,2041.98,1017.15,1301.62,1462.75,600.28,616.17,52.58,0000 0000 0000 0000 000000
2016-12-26 07:30:52,0.39,12.68,0.00,17.59,22.22,26.09,15.14,49.76,1031.26,2041.98,1015.44,1300.36,1461.35,600.18,616.05,52.63,0000 0000 0000 0000 000000
2016-12-26 07:35:53,0.42,12.69,0.00,17.60,22.22,26.15,15.07,49.81,1031.23,2041.99,1013.76,1298.95,1459.78,600.04,615.83,52.68,0000 0000 0000 0000 000000
2016-12-26 07:40:54,0.44,12.72,0.00,17.61,22.21,26.13,15.03,49.72,1031.18,2041.99,1012.08,1297.53,1458.03,599.68,615.23,52.74,0000 0000 0000 0000 000000
2016-12-26 07:45:55,0.45,12.74,0.00,17.59,22.20,26.07,15.09,49.71,1031.20,2041.99,1010.18,1295.97,1456.36,599.86,615.66,52.79,0000 0000 0000 0000 000000
2016-12-26 07:50:57,0.44,12.76,0.00,17.62,22.19,26.08,15.01,49.70,1031.10,2041.99,1008.37,1294.59,1454.74,599.56,615.29,52.84,0000 0000 0000 0000 000000
2016-12-26 07:55:58,0.43,12.79,0.00,17.62,22.19,26.09,15.11,49.67,1030.89,2041.99,1006.68,1293.13,1453.04,599.86,615.43,52.89,0000 0000 0000 0000 000000
2016-12-26 08:00:59,0.45,12.81,0.00,17.65,22.19,26.11,15.12,49.60,1030.81,2041.99,1004.87,1291.70,1451.45,600.14,615.62,52.94,0000 0000 0000 0000 000000
2016-12-26 08:06:01,0.41,12.83,0.00,17.63,22.19,26.12,15.13,49.56,1030.85,2041.99,1003.14,1290.29,1449.80,600.09,615.57,52.99,0000 0000 0000 0000 000000
2016-12-26 08:11:02,0.46,12.85,0.00,17.67,22.19,26.11,15.08,49.55,1030.80,2041.99,1001.42,1288.77,1448.07,600.13,615.55,53.04,0000 0000 0000 0000 000000
2016-12-26 08:16:03,0.46,12.88,0.00,17.65,22.19,26.13,15.08,49.58,1030.78,2041.98,999.47,1287.30,1446.43,599.78,615.23,53.09,0000 0000 0000 0000 000000
2016-12-26 08:21:04,0.49,12.90,0.00,17.70,22.19,26.17,15.07,49.67,1030.78,2041.99,997.51,1285.76,1444.74,599.86,615.20,53.14,0000 0000 0000 0000 000000
2016-12-26 08:26:05,0.41,12.92,0.00,17.69,22.18,26.15,15.08,49.52,1030.79,2041.99,995.86,1284.41,1443.08,599.78,615.10,53.19,0000 0000 0000 0000 000000
2016-12-26 08:31:06,0.48,12.95,0.00,17.68,22.18,26.16,15.14,49.66,1030.79,2041.99,993.99,1282.84,1441.41,599.94,615.39,53.24,0000 0000 0000 0000 000000
2016-12-26 08:36:07,0.43,12.97,0.00,17.71,22.18,26.19,15.16,49.62,1030.79,2041.99,992.07,1281.42,1439.78,600.25,615.54,53.29,0000 0000 0000 0000 000000
2016-12-26 08:41:09,0.47,12.99,0.00,17.73,22.19,26.17,15.15,49.57,1030.79,2041.99,990.33,1279.91,1438.06,600.15,615.44,53.34,0000 0000 0000 0000 000000
2016-12-26 08:46:10,0.44,13.02,0.00,17.73,22.19,26.16,15.13,49.67,1030.78,2041.99,988.56,1278.60,1436.45,600.45,615.71,53.39,0000 0000 0000 0000 000000
2016-12-26 08:51:11,0.46,13.04,0.00,17.68,22.19,26.17,15.06,49.79,1030.78,2041.99,986.76,1277.12,1434.73,599.76,615.07,53.44,0000 0000 0000 0000 000000
2016-12-26 08:56:13,0.46,13.06,0.00,17.68,22.17,26.16,15.07,49.85,1030.78,2041.99,984.94,1275.69,1433.12,599.98,615.30,53.49,0000 0000 0000 0000 000000
2016-12-26 09:01:13,0.43,13.09,0.00,17.68,22.18,26.17,15.14,49.73,1030.78,2041.99,983.17,1274.23,1431.44,600.22,615.60,53.54,0000 0000 0000 0000 000000
2016-12-26 09:06:15,0.46,13.11,0.00,17.67,22.18,26.19,15.13,49.74,1030.78,2041.99,981.51,1272.78,1429.76,599.81,615.16,53.59,0000 0000 0000 0000 000000
2016-12-26 09:11:16,0.46,13.13,0.00,17.66,22.18,26.16,15.13,49.71,1030.78,2041.98,979.70,1271.39,1428.12,600.47,615.95,53.64,0000 0000 0000 0000 000000
2016-12-26 09:16:17,0.44,13.15,0.00,17.66,22.17,26.16,15.04,49.70,1030.79,2041.98,977.96,1269.90,1426.55,599.94,615.29,53.70,0000 0000 0000 0000 000000
2016-12-26 09:21:18,0.42,13.18,0.00,17.68,22.17,26.12,15.10,49.79,1030.78,2041.99,976.35,1268.58,1425.00,599.93,615.34,53.75,0000 0000 0000 0000 000000
2016-12-26 09:26:20,0.43,13.20,0.00,17.67,22.17,26.12,15.10,49.75,1030.78,2041.99,974.70,1267.25,1423.50,599.99,615.56,53.80,0000 0000 0000 0000 000000
2016-12-26 09:31:21,0.41,13.22,0.00,17.63,22.17,26.17,15.04,49.71,1030.78,2041.98,973.09,1265.88,1421.90,599.66,615.12,53.85,0000 0000 0000 0000 000000
2016-12-26 09:36:22,0.43,13.24,0.00,17.64,22.17,26.15,15.07,49.62,1030.78,2041.98,971.54,1264.57,1420.40,600.22,615.65,53.90,0000 0000 0000 0000 000000
2016-12-26 09:41:24,0.43,13.26,0.00,17.65,22.17,26.13,15.06,49.69,1030.78,2041.99,969.84,1263.22,1418.78,599.73,615.21,53.95,0000 0000 0000 0000 000000
2016-12-26 09:46:25,0.47,13.29,0.00,17.64,22.17,26.13,15.05,49.86,1030.78,2041.98,968.08,1261.71,1417.22,599.93,615.39,54.00,0000 0000 0000 0000 000000
2016-12-26 09:51:26,0.43,13.31,0.00,17.60,22.17,26.14,15.12,49.79,1030.78,2041.98,966.36,1260.42,1415.67,599.99,615.56,54.05,0000 0000 0000 0000 000000
2016-12-26 09:56:27,0.48,13.33,0.00,17.65,22.17,26.19,15.12,49.79,1030.78,2041.96,964.47,1258.92,1414.04,599.88,615.34,54.10,0000 0000 0000 0000 000000
2016-12-26 10:01:28,0.47,13.36,0.00,17.66,22.19,26.15,15.06,49.79,1030.76,2041.99,962.70,1257.53,1412.55,599.54,614.94,54.15,0000 0000 0000 0000 000000
2016-12-26 10:06:30,0.41,13.38,0.00,17.65,22.19,26.14,15.09,49.76,1030.73,2041.98,961.02,1256.16,1410.96,600.13,615.55,54.20,0000 0000 0000 0000 000000
2016-12-26 10:11:31,0.41,13.40,0.00,17.64,22.19,26.15,15.09,49.72,1030.74,2041.99,959.67,1254.82,1409.37,599.83,615.31,54.25,0000 0000 0000 0000 000000
2016-12-26 10:16:32,0.37,13.42,0.00,17.68,22.19,26.10,15.12,49.93,1030.68,2041.98,958.41,1253.60,1407.93,600.21,615.54,54.30,0000 0000 0000 0000 000000
2016-12-26 10:21:33,0.39,13.44,0.00,17.70,22.19,26.13,15.06,49.82,1030.64,2041.98,956.90,1252.41,1406.66,599.95,615.22,54.35,0000 0000 0000 0000 000000
2016-12-26 10:26:34,0.36,13.46,0.00,17.68,22.19,26.11,15.06,49.71,1030.59,2041.98,955.52,1251.19,1405.34,600.39,615.63,54.40,0000 0000 0000 0000 000000
2016-12-26 10:31:35,0.35,13.48,0.00,17.66,22.19,26.13,15.01,49.68,1030.38,2041.97,954.04,1250.02,1403.97,599.79,614.98,54.45,0000 0000 0000 0000 000000
2016-12-26 10:36:36,0.45,13.49,0.00,17.65,22.19,26.13,15.03,49.81,1030.32,2041.97,952.60,1248.80,1402.56,600.13,615.32,54.50,0000 0000 0000 0000 000000
2016-12-26 10:41:38,0.34,13.52,0.00,17.64,22.19,26.16,15.12,49.83,1030.30,2041.96,951.16,1247.69,1401.30,600.18,615.38,54.55,0000 0000 0000 0000 000000
2016-12-26 10:46:39,0.40,13.53,0.00,17.63,22.19,26.14,15.14,49.82,1030.29,2041.96,949.71,1246.47,1399.98,600.10,615.30,54.60,0000 0000 0000 0000 000000
2016-12-26 10:51:40,0.36,13.55,0.00,17.58,22.19,26.15,15.15,49.82,1030.29,2041.98,948.33,1245.36,1398.66,600.10,615.46,54.66,0000 0000 0000 0000 000000
2016-12-26 10:56:41,0.36,13.57,0.00,17.62,22.18,26.11,15.10,49.84,1030.26,2041.98,946.90,1244.15,1397.35,599.93,615.12,54.71,0000 0000 0000 0000 000000
2016-12-26 11:01:42,0.37,13.59,0.00,17.61,22.18,26.17,15.08,49.65,1029.99,2041.97,945.59,1243.01,1396.00,599.94,615.06,54.76,0000 0000 0000 0000 000000
2016-12-26 11:06:43,0.39,13.61,0.00,17.59,22.17,26.17,15.13,49.93,1029.89,2041.98,944.13,1241.85,1394.69,599.95,614.99,54.81,0000 0000 0000 0000 000000
2016-12-26 11:11:44,0.40,13.63,0.00,17.56,22.17,26.10,15.12,49.80,1030.16,2041.97,942.76,1240.71,1393.39,599.99,615.26,54.86,0000 0000 0000 0000 000000
2016-12-26 11:16:45,0.38,13.65,0.00,17.56,22.17,26.11,15.13,49.88,1030.06,2041.97,941.33,1239.55,1392.01,600.03,615.26,54.91,0000 0000 0000 0000 000000
2016-12-26 11:21:47,0.38,13.67,0.00,17.57,22.17,26.10,15.10,49.90,1029.96,2041.96,939.87,1238.37,1390.69,599.75,614.95,54.96,0000 0000 0000 0000 000000
2016-12-26 11:26:48,0.39,13.69,0.00,17.59,22.16,26.08,15.08,49.97,1029.83,2041.95,938.49,1237.14,1389.39,600.01,615.05,55.01,0000 0000 0000 0000 000000
2016-12-26 11:31:49,0.35,13.71,0.00,17.56,22.15,26.09,15.12,49.91,1029.82,2041.98,937.09,1236.02,1388.10,600.11,615.19,55.06,0000 0000 0000 0000 000000
2016-12-26 11:36:50,0.40,13.73,0.00,17.60,22.15,26.08,15.07,49.81,1029.80,2041.98,935.76,1234.90,1386.77,599.62,614.64,55.11,0000 0000 0000 0000 000000
2016-12-26 11:41:51,0.37,13.75,0.00,17.57,22.15,26.11,15.07,49.79,1029.80,2041.99,934.42,1233.84,1385.55,599.69,614.78,55.16,0000 0000 0000 0000 000000
2016-12-26 11:46:53,0.36,13.77,0.00,17.55,22.14,26.15,15.10,49.98,1029.80,2041.98,933.05,1232.72,1384.32,600.06,615.14,55.21,0000 0000 0000 0000 000000
2016-12-26 11:51:54,0.35,13.78,0.00,17.57,22.14,26.09,15.00,50.00,1029.80,2041.99,931.82,1231.67,1383.10,599.48,614.63,55.26,0000 0000 0000 0000 000000
2016-12-26 11:56:55,0.36,13.80,0.00,17.57,22.14,26.06,15.06,50.09,1029.72,2041.99,930.51,1230.64,1381.94,599.92,614.95,55.31,0000 0000 0000 0000 000000
2016-12-26 12:01:57,0.31,13.82,0.00,17.57,22.14,26.10,15.07,50.02,1029.52,2041.99,929.37,1229.67,1380.81,599.77,614.69,55.36,0000 0000 0000 0000 000000
2016-12-26 12:06:57,0.31,13.83,0.00,17.57,22.14,26.10,15.09,50.04,1029.42,2041.99,928.30,1228.68,1379.65,599.91,614.79,55.41,0000 0000 0000 0000 000000
2016-12-26 12:11:59,0.31,13.85,0.00,17.58,22.14,26.09,15.15,50.03,1029.34,2041.99,927.25,1227.68,1378.53,600.22,614.97,55.46,0000 0000 0000 0000 000000
2016-12-26 12:17:00,0.36,13.87,0.00,17.56,22.15,26.13,15.10,50.10,1029.33,2041.99,925.86,1226.70,1377.37,599.84,614.59,55.51,0000 0000 0000 0000 000000
2016-12-26 12:22:01,0.35,13.89,0.00,17.54,22.15,26.08,15.08,50.03,1029.31,2041.99,924.58,1225.71,1376.31,600.12,614.99,55.56,0000 0000 0000 0000 000000
2016-12-26 12:27:03,0.29,13.90,0.00,17.56,22.15,26.09,15.17,50.11,1029.31,2041.98,923.51,1224.76,1375.23,600.01,614.77,55.62,0000 0000 0000 0000 000000
2016-12-26 12:32:04,0.27,13.92,0.00,17.56,22.15,26.13,15.04,50.03,1029.31,2041.99,922.53,1223.89,1374.07,599.71,614.39,55.67,0000 0000 0000 0000 000000
2016-12-26 12:37:05,0.31,13.93,0.00,17.59,22.16,26.13,15.10,50.07,1029.31,2041.98,921.35,1222.95,1373.04,600.34,615.00,55.72,0000 0000 0000 0000 000000
2016-12-26 12:42:07,0.29,13.95,0.00,17.61,22.17,26.11,15.10,50.07,1029.31,2041.99,920.34,1222.04,1372.02,599.94,614.56,55.77,0000 0000 0000 0000 000000
2016-12-26 12:47:08,0.30,13.96,0.00,17.56,22.17,26.11,14.98,50.03,1029.30,2041.99,919.28,1221.15,1371.03,599.80,614.61,55.82,0000 0000 0000 0000 000000
2016-12-26 12:52:09,0.30,13.98,0.00,17.55,22.17,26.20,15.14,50.17,1029.28,2041.98,918.17,1220.25,1370.04,600.03,614.80,55.87,0000 0000 0000 0000 000000